Regional Weather Roundup
Issued by NWS

Home | Current Version | Previous Version | Text Only | Print | Product List | Glossary On
Versions: 1 2 3 4 5 6 7 8 9 10 11 12 13 14 15 16 17 18 19 20 21 22 23 24 25 26 27
000
ASUS44 KBMX 301010
RWRAL

ALABAMA REGIONAL WEATHER ROUNDUP
NATIONAL WEATHER SERVICE BIRMINGHAM AL
500 AM CDT MON MAY 30 2016

NOTE: "FAIR" INDICATES FEW OR NO CLOUDS BELOW 12,000 FEET
WITH NO SIGNIFICANT WEATHER AND/OR OBSTRUCTIONS TO VISIBILITY.

THE REMARK "TC" DENOTES TEMPERATURE IN DEGREES CELSIUS.

ALZ001>011-014-016>018-020-301100-
NORTH ALABAMA

CITY           SKY/WX    TMP DP  RH WIND       PRES   REMARKS
MUSCLE SHOALS  CLEAR     67  64  90 W3        30.04R
HUNTSVILLE     CLEAR     66  61  84 CALM      30.02S
DECATUR        PTCLDY    63  62  97 MISG      30.03S
HALEYVILLE     FAIR      63  62  97 CALM      30.05S
GADSDEN        CLEAR     64  63  96 CALM      30.02S
$$

ALZ012-013-022-023-030>036-040>044-301100-
WEST CENTRAL ALABAMA

CITY           SKY/WX    TMP DP  RH WIND       PRES   REMARKS
TUSCALOOSA     CLEAR     66  66 100 CALM      30.01R
$$

ALZ015-024>027-033>036-040>044-301100-
CENTRAL ALABAMA

CITY           SKY/WX    TMP DP  RH WIND       PRES   REMARKS
BIRMINGHAM     CLEAR     68  65  90 CALM      30.04S
MONTGOMERY     CLEAR     69  66  90 SW3       30.00S
SHELBY CO ARPT CLEAR     68  65  90 CALM      30.01S
MAXWELL AFB    PTCLDY    67  67  99 W2        29.99S
GREENVILLE     FAIR      68  64  87 CALM      30.00S
$$

ALZ019-021-028-029-037-038-045>048-301100-
EAST CENTRAL ALABAMA

CITY           SKY/WX    TMP DP  RH WIND       PRES   REMARKS
ANNISTON       CLEAR     65  62  90 CALM      30.02S
ALEXANDER CITY CLEAR     67  67 100 CALM      30.01S
AUBURN         PTCLDY   N/A N/A N/A CALM      30.02
$$

ALZ051>064-301100-
SOUTHWEST ALABAMA

CITY           SKY/WX    TMP DP  RH WIND       PRES   REMARKS
MOBILE         PTCLDY    70  69  97 W3        30.01F
BROOKLEY FIELD PTCLDY    73  69  87 W5        30.01S
EVERGREEN      CLEAR     66  65  96 CALM      30.01S
$$

ALZ049-050-065>069-301100-
SOUTHEAST ALABAMA

CITY           SKY/WX    TMP DP  RH WIND       PRES   REMARKS
DOTHAN         CLEAR     72  67  84 NW6       30.03S
OZARK          CLEAR     70  68  94 CALM      29.99S
TROY           CLEAR     67  65  93 CALM      30.01S
EUFAULA        FAIR      66  63  90 CALM      29.99S
$$




USA.gov is the U.S. government's official web portal to all federal, state and local government web resources and services.